Regional Weather Roundup
Issued by NWS

Home | Current Version | Previous Version | Graphics & Text | Print | Product List | Glossary On
Versions: 1 2 3 4 5 6 7 8 9 10 11 12 13 14 15 16 17 18 19 20 21 22 23 24 25 26 27 28 29 30 31 32 33 34 35 36 37 38 39 40 41 42 43 44 45 46 47 48 49 50
305
ASUS43 KDMX 200701
RWRIA

WEATHER ROUNDUP FOR IOWA
NATIONAL WEATHER SERVICE DES MOINES IA
200 AM CDT WED SEP 20 2017

NOTE: "FAIR" INDICATES FEW OR NO CLOUDS BELOW 12,000 FEET WITH NO
SIGNIFICANT WEATHER AND/OR OBSTRUCTIONS TO VISIBILITY.

* - THESE STATIONS ARE NOT NWS STATIONS...THUS NOT UNDER NWS
QUALITY CONTROL.  THEY ALSO DO NOT REPORT WEATHER SUCH
AS PRECIPITATION OR FOG.

IAZ001>003-012>014-020>022-031>034-043>046-200800-
   NORTHWEST IOWA

CITY           SKY/WX    TMP DP  RH WIND       PRES   REMARKS
CARROLL *      PTCLDY    75  68  78 S14G25    29.62S
CHEROKEE *     MOCLDY    71  64  79 NW18G25   29.64R
DENISON *      PTCLDY    75  70  83 S15G26    29.62R
LE MARS *      HVY RAIN  61  57  88 N12G22    29.67R
ORANGE CITY *  LGT RAIN  63  59  88 N10G18    29.68R
SHELDON *      CLOUDY    61  57  88 CALM      29.67R
SIOUX CITY     CLOUDY    67  56  67 N23G35    29.65R
SPENCER        CLOUDY    69  62  78 NW17G26   29.66R
STORM LAKE *   CLEAR     75  68  78 S20G28    29.59S
$$

IAZ055>058-069>071-079>083-090>094-200800-
   SOUTHWEST IOWA

CITY           SKY/WX    TMP DP  RH WIND       PRES   REMARKS
ATLANTIC *     CLOUDY    77  70  78 S16       29.64S
AUDUBON *      CLOUDY    75  70  83 S14G20    29.65S
CLARINDA *     CLOUDY    77  70  78 S16G22    29.67F
COUNCIL BLFS * CLEAR     77  73  88 S17G23    29.61S
CRESTON *      PTCLDY    75 -35   1 S17G23    29.70F
HARLAN  *      PTCLDY    77  70  78 S17G26    29.65S
LAMONI         CLEAR     73  68  84 S12G17    29.72F
RED OAK *      CLOUDY    77  70  78 S15G24    29.64F
SHENANDOAH *   CLOUDY    77  70  78 S16G23    29.64S
$$

IAZ047>049-059>061-072>074-084-200800-
   CENTRAL IOWA

CITY           SKY/WX    TMP DP  RH WIND       PRES   REMARKS
AMES           CLOUDY    73  68  84 S14       29.69R
ANKENY *       CLEAR     73  66  78 S8        29.70R
BOONE *        CLOUDY    73  66  78 SE13      29.67S
CHARITON *     CLEAR     73  66  78 S12       29.73F
DES MOINES     PTCLDY    75  67  76 S13       29.69S
GRINNELL*      CLEAR     70  65  85 SE10      29.76S
KNOXVILLE *    CLEAR     73  66  78 S10G16    29.71F
MARSHALLTOWN   CLEAR     71  67  87 SE15      29.72R
NEWTON *       CLEAR     70  66  88 SE10      29.73S
PELLA *        CLEAR     73  65  74 S12       29.74S
PERRY *          N/A     76  69  79 S13G18    29.66S
$$

IAZ004>006-015-016-023>025-035-036-200800-
   NORTH CENTRAL IOWA

CITY           SKY/WX    TMP DP  RH WIND       PRES   REMARKS
ALGONA *       CLOUDY    75  68  78 S22G32    29.61F
CLARION *      MOCLDY    75  68  78 S23G32    29.65F
ESTHERVILLE    PTCLDY    73  68  84 S21G35    29.59R
FORT DODGE *   PTCLDY    74  67  78 S16G23    29.65R
MASON CITY     CLOUDY    71  65  81 SE18G26   29.70S
FOREST CITY *  CLOUDY    72  64  78 SE18G24   29.67S
IOWA FALLS *     N/A     73  66  79 SE15G29   29.72R
$$

IAZ007>011-017>019-026>030-037>042-050>054-066-200800-
   NORTHEAST IOWA

CITY           SKY/WX    TMP DP  RH WIND       PRES   REMARKS
CEDAR RAPIDS   CLEAR     70  65  84 SE12G20   29.77F
CHARLES CITY * CLOUDY    70  66  88 SE14G21   29.75R
CLINTON *      CLEAR     66  64  93 SE9       29.84F
DECORAH *      PTCLDY    68  64  88 SE10G18   29.78R
DUBUQUE        PTCLDY    66  63  90 SE14      29.83S
MONTICELLO *   MOCLDY    70  64  83 SE9G15    29.81R
OELWEIN *      CLEAR     70  66  88 SE15G21   29.79R
WATERLOO       PTCLDY    69  64  84 SE16      29.74R
$$

IAZ064-065-067-068-078-200800-
   EAST CENTRAL IOWA

CITY           SKY/WX    TMP DP  RH WIND       PRES   REMARKS
DAVENPORT      PTCLDY    69  63  81 SE10      29.85F
IOWA CITY      CLEAR     69  64  84 SE9       29.80F
MUSCATINE *    CLEAR     70  64  83 SE6       29.81S
QUAD CITIES    CLEAR     70  63  78 SE8       29.82F
$$

IAZ062-063-075>077-085>089-095>099-200800-
   SOUTHEAST IOWA

CITY           SKY/WX    TMP DP  RH WIND       PRES   REMARKS
BURLINGTON     CLEAR     73  66  78 S9        29.81F
FAIRFIELD *    CLEAR     72  64  78 SE9G16    29.77F
FORT MADISON * CLEAR     72  66  83 S7        29.82S
KEOKUK *       CLEAR     73  66  78 S7G14     29.81R
OSKALOOSA *      N/A     71  65  83 SE9       29.76F
OTTUMWA        CLEAR     74  66  76 S13G21    29.76F
WASHINGTON *   CLEAR     70  66  88 SE9       29.80S
$$

ABBREVIATIONS USED IN REMARKS
   TC - TEMPERATURES IN CELSIUS
  WCI - WIND CHILL INDEX
   HX - HEAT INDEX
  VSB - VISIBILITY
$$





USA.gov is the U.S. government's official web portal to all federal, state and local government web resources and services.